Regional Weather Roundup
Issued by NWS Goodland, KS

Home | Current Version | Previous Version | Graphics & Text | Print | Product List | Glossary On
Versions: 1 2 3 4 5 6 7 8 9 10 11 12 13 14 15 16 17 18 19 20 21 22 23 24 25 26 27 28 29 30 31 32 33 34 35 36 37 38 39 40 41 42 43 44 45 46 47 48 49 50
000
ASUS43 KGLD 310659
RWRGLD

GOODLAND FORECAST AREA HOURLY WEATHER ROUNDUP
NATIONAL WEATHER SERVICE GOODLAND KS
100 AM MDT THU JUL 31 2014

...OFFICIAL OBSERVATIONS...

CITY           SKY/WX    TMP DP  RH WIND       PRES   REMARKS
GOODLAND KS    CLEAR     58  56  93 W7        30.26F
HILL CITY KS   PTCLDY    60  54  80 CALM      30.18F
IMPERIAL NEB   PTCLDY    59  56  89 W7        30.22F
MCCOOK NEB     CLEAR     62  59  90 W7        30.19F
AKRON CO       CLOUDY    58  55  90 W6        30.29F
BURLINGTON CO  MOCLDY    59  55  87 W6        30.28F
LIMON CO       CLOUDY    56  55  97 CALM      30.34F
$$

...UNOFFICIAL OBSERVATIONS...

CITY           SKY/WX    TMP DP  RH WIND       PRES   REMARKS
COLBY KS       CLEAR     61  61 100 W6        30.24S
GOVE KS          N/A     61  32  33 MISG        N/A
NORTON KS      CLEAR     63  50  63 S5        30.16F
SHARON SPRINGS   N/A     60  57  90 CALM        N/A
WAKEENEY KS      N/A     65  52  62 MISG        N/A
KIT CARSON CO    N/A     58  55  90 CALM        N/A
YUMA CO          N/A     59  57  92 W5          N/A
$$


USA.gov is the U.S. government's official web portal to all federal, state and local government web resources and services.